Regional Weather Roundup
Issued by NWS

Home | Current Version | Previous Version | Text Only | Print | Product List | Glossary On
Versions: 1 2 3 4 5 6 7 8 9 10 11 12 13 14 15 16 17 18 19 20 21 22 23 24 25 26 27
000
ASUS45 KBOI 241110
RWRID

IDAHO REGIONAL WEATHER ROUNDUP
NATIONAL WEATHER SERVICE BOISE ID
500 AM MDT WED AUG 24 2016

NOTE: "FAIR" INDICATES FEW OR NO CLOUDS BELOW 12000 FEET
WITH NO SIGNIFICANT WEATHER AND/OR OBSTRUCTIONS TO VISIBILITY

IDZ012-014-241200-
SOUTHWEST IDAHO


CITY           SKY/WX    TMP DP  RH WIND       PRES   REMARKS
BOISE          CLEAR     54  38  54 SW3       30.11R
CALDWELL       CLEAR     59  40  49 W10       30.11R
MOUNTAIN HOME  CLEAR     57  36  45 NW13      30.10R
$$

IDZ016-017-241200-
SOUTHCENTRAL IDAHO


CITY           SKY/WX    TMP DP  RH WIND       PRES   REMARKS
BURLEY         CLEAR     46  35  65 CALM      30.13S
JEROME         CLEAR     51  30  44 SE3       30.13R
TWIN FALLS     CLOUDY    58  23  26 S13       30.13R
$$

IDZ019>023-241200-
SOUTHEAST IDAHO


CITY           SKY/WX    TMP DP  RH WIND       PRES   REMARKS
IDAHO FALLS    CLOUDY    38  30  73 NW6       30.17R WCI  33
POCATELLO      CLEAR     56  23  27 SW12      30.14S
REXBURG        CLEAR     43  27  53 NE6       30.18S
$$

IDZ006-010-011-018-031-032-241200-
CENTRAL IDAHO MOUNTAINS


CITY           SKY/WX    TMP DP  RH WIND       PRES   REMARKS
MCCALL         CLEAR     51  32  48 N3        30.22F
HAILEY         CLEAR     48  28  46 NW8       30.20R
STANLEY          N/A     31  23  72 S3        30.28S
SALMON         CLEAR    N/A N/A N/A MISG        N/A
CHALLIS        CLEAR     48  29  47 CALM      30.21S
$$

IDZ002-004-006-007-026-241200-
NORTHERN IDAHO


CITY           SKY/WX    TMP DP  RH WIND       PRES   REMARKS
LEWISTON       CLEAR     58  39  49 SE5       30.15R
LOWELL           N/A     50  44  80 NW3       30.23R
COEUR D`ALENE  CLEAR     55  45  67 NE10      30.18S
MULLAN PASS    PTCLDY    48  36  63 E6        30.31R
$$




USA.gov is the U.S. government's official web portal to all federal, state and local government web resources and services.